Location: Meanaryar
(48.4161°N, 4.7315°W)
Time: 01:57:41
(UTC+00:00)

USA 234 - Pass Details

Date: 18 September 2020
Orbit: 1102 x 1106 km, 123.0° (Epoch: 16 October)

Event Time Altitude Azimuth Distance (km) Brightness Sun altitude
Rises 23:44:34 0° 69° (ENE) 3,923 6.3 -39.8°
Reaches altitude 10° 23:47:10 10° 63° (ENE) 2,965 5.7 -39.9°
Enters shadow 23:50:38 30° 42° (NE) 1,873 4.6 -40.0°
Exits shadow 23:54:28 39° 329° (NNW) 1,602 4.3 -40.0°
Drops below altitude 10° 23:59:19 10° 288° (WNW) 2,966 5.7 -40.1°
Sets 00:01:55 0° 281° (WNW) 3,924 6.3 -40.1°
